Time,TemperatureF,DewpointF,PressureIn,WindDirection,WindDirectionDegrees,WindSpeedMPH,WindSpeedGustMPH,Humidity,HourlyPrecipIn,Conditions,Clouds,dailyrainin,SoftwareType,DateUTC
2013-07-17 00:06:00,55.1,53.0,29.98,North,5,1.0,-999.0,93,-99.99,,,0.01,weatherlink.com 1.10,2013-07-17 07:06:00,
2013-07-17 00:21:00,55.1,53.0,29.98,NNE,22,3.0,-999.0,93,-99.99,,,0.01,weatherlink.com 1.10,2013-07-17 07:21:00,
2013-07-17 00:36:00,55.0,53.0,29.99,NE,36,2.0,-999.0,93,-99.99,,,0.01,weatherlink.com 1.10,2013-07-17 07:36:00,
2013-07-17 00:51:00,55.0,53.0,29.99,North,355,1.0,-999.0,93,-99.99,,,0.01,weatherlink.com 1.10,2013-07-17 07:51:00,
2013-07-17 01:06:00,54.8,53.0,29.99,NW,312,3.0,-999.0,93,-99.99,,,0.01,weatherlink.com 1.10,2013-07-17 08:06:00,
2013-07-17 01:21:00,54.7,53.0,29.99,North,355,2.0,-999.0,93,-99.99,,,0.01,weatherlink.com 1.10,2013-07-17 08:21:00,
2013-07-17 01:36:00,54.7,53.0,29.99,NNW,342,1.0,-999.0,93,-99.99,,,0.01,weatherlink.com 1.10,2013-07-17 08:36:00,
2013-07-17 01:51:00,54.8,53.0,29.99,North,355,1.0,-999.0,93,-99.99,,,0.01,weatherlink.com 1.10,2013-07-17 08:51:00,
2013-07-17 02:06:00,54.9,53.0,29.99,NNW,346,5.0,-999.0,93,-99.99,,,0.01,weatherlink.com 1.10,2013-07-17 09:06:00,
2013-07-17 02:21:00,54.8,53.0,29.99,NW,321,8.0,-999.0,93,-99.99,,,0.01,weatherlink.com 1.10,2013-07-17 09:21:00,
2013-07-17 02:36:00,54.6,53.0,29.99,North,355,5.0,-999.0,93,-99.99,,,0.01,weatherlink.com 1.10,2013-07-17 09:36:00,
2013-07-17 02:51:00,54.6,53.0,29.99,North,360,1.0,-999.0,93,-99.99,,,0.01,weatherlink.com 1.10,2013-07-17 09:51:00,
2013-07-17 03:06:00,54.5,53.0,29.99,NNW,337,2.0,-999.0,93,-99.99,,,0.01,weatherlink.com 1.10,2013-07-17 10:06:00,
2013-07-17 03:21:00,54.3,52.0,29.99,North,351,2.0,-999.0,93,-99.99,,,0.01,weatherlink.com 1.10,2013-07-17 10:21:00,
2013-07-17 03:36:00,54.3,52.0,29.98,North,360,2.0,-999.0,93,-99.99,,,0.01,weatherlink.com 1.10,2013-07-17 10:36:00,
2013-07-17 03:51:00,54.2,52.0,29.98,NNE,18,2.0,-999.0,93,-99.99,,,0.01,weatherlink.com 1.10,2013-07-17 10:51:00,
2013-07-17 04:06:00,54.2,53.0,29.98,NW,320,6.0,-999.0,94,-99.99,,,0.01,weatherlink.com 1.10,2013-07-17 11:06:00,
2013-07-17 04:26:00,54.2,53.0,29.99,NNW,346,6.0,-999.0,94,-99.99,,,0.01,weatherlink.com 1.10,2013-07-17 11:26:00,
2013-07-17 04:35:00,54.3,53.0,29.99,NNW,333,4.0,-999.0,94,-99.99,,,0.01,weatherlink.com 1.10,2013-07-17 11:35:00,
2013-07-17 04:50:00,54.4,53.0,29.99,NNW,331,5.0,-999.0,94,-99.99,,,0.01,weatherlink.com 1.10,2013-07-17 11:50:00,
2013-07-17 05:05:00,54.4,53.0,29.99,NNW,331,7.0,-999.0,94,-99.99,,,0.01,weatherlink.com 1.10,2013-07-17 12:05:00,
2013-07-17 05:20:00,54.3,53.0,30.00,North,10,2.0,-999.0,94,-99.99,,,0.01,weatherlink.com 1.10,2013-07-17 12:20:00,
2013-07-17 05:35:00,54.4,53.0,30.00,NNE,28,5.0,-999.0,94,-99.99,,,0.01,weatherlink.com 1.10,2013-07-17 12:35:00,
2013-07-17 05:50:00,54.4,53.0,30.00,NNW,341,5.0,-999.0,94,-99.99,,,0.01,weatherlink.com 1.10,2013-07-17 12:50:00,
2013-07-17 06:05:00,54.4,53.0,30.00,NNE,14,3.0,-999.0,94,-99.99,,,0.01,weatherlink.com 1.10,2013-07-17 13:05:00,
2013-07-17 06:20:00,54.3,53.0,30.01,NW,323,7.0,-999.0,94,-99.99,,,0.00,weatherlink.com 1.10,2013-07-17 13:20:00,
2013-07-17 06:35:00,54.1,53.0,30.01,North,360,4.0,-999.0,94,-99.99,,,0.00,weatherlink.com 1.10,2013-07-17 13:35:00,
2013-07-17 07:06:00,54.1,53.0,30.02,NNW,340,3.0,-999.0,94,-99.99,,,0.00,weatherlink.com 1.10,2013-07-17 14:06:00,
2013-07-17 07:22:00,54.2,53.0,30.02,North,355,5.0,-999.0,94,-99.99,,,0.00,weatherlink.com 1.10,2013-07-17 14:22:00,
2013-07-17 07:36:00,54.3,53.0,30.02,NNW,339,5.0,-999.0,94,-99.99,,,0.00,weatherlink.com 1.10,2013-07-17 14:36:00,
2013-07-17 07:51:00,54.4,53.0,30.02,NNW,341,3.0,-999.0,94,-99.99,,,0.00,weatherlink.com 1.10,2013-07-17 14:51:00,
2013-07-17 08:06:00,54.5,53.0,30.02,NNW,338,4.0,-999.0,94,-99.99,,,0.00,weatherlink.com 1.10,2013-07-17 15:06:00,
2013-07-17 08:21:00,54.6,53.0,30.03,NW,323,7.0,-999.0,94,-99.99,,,0.00,weatherlink.com 1.10,2013-07-17 15:21:00,
2013-07-17 08:36:00,54.6,53.0,30.03,North,5,3.0,-999.0,94,-99.99,,,0.00,weatherlink.com 1.10,2013-07-17 15:36:00,
2013-07-17 08:51:00,54.6,53.0,30.04,NNW,329,2.0,-999.0,94,-99.99,,,0.00,weatherlink.com 1.10,2013-07-17 15:51:00,
2013-07-17 09:06:00,54.6,53.0,30.04,NNW,340,4.0,-999.0,94,-99.99,,,0.00,weatherlink.com 1.10,2013-07-17 16:06:00,
2013-07-17 09:21:00,54.9,53.0,30.04,NW,306,6.0,-999.0,94,-99.99,,,0.00,weatherlink.com 1.10,2013-07-17 16:21:00,
2013-07-17 09:36:00,54.9,53.0,30.04,WNW,298,5.0,-999.0,93,-99.99,,,0.00,weatherlink.com 1.10,2013-07-17 16:36:00,
2013-07-17 09:51:00,55.1,53.0,30.04,NNW,329,4.0,-999.0,93,-99.99,,,0.00,weatherlink.com 1.10,2013-07-17 16:51:00,
2013-07-17 10:07:00,55.4,53.0,30.04,WNW,302,8.0,-999.0,92,-99.99,,,0.00,weatherlink.com 1.10,2013-07-17 17:07:00,
2013-07-17 10:21:00,55.6,53.0,30.04,North,355,5.0,-999.0,92,-99.99,,,0.00,weatherlink.com 1.10,2013-07-17 17:21:00,
2013-07-17 10:37:00,55.9,53.0,30.04,NNW,341,6.0,-999.0,91,-99.99,,,0.00,weatherlink.com 1.10,2013-07-17 17:37:00,
2013-07-17 10:51:00,56.3,54.0,30.05,NW,311,7.0,-999.0,90,-99.99,,,0.00,weatherlink.com 1.10,2013-07-17 17:51:00,
2013-07-17 11:06:00,56.4,54.0,30.05,North,351,4.0,-999.0,90,-99.99,,,0.00,weatherlink.com 1.10,2013-07-17 18:06:00,
2013-07-17 11:21:00,56.6,54.0,30.05,NW,315,8.0,-999.0,90,-99.99,,,0.00,weatherlink.com 1.10,2013-07-17 18:21:00,
2013-07-17 11:36:00,56.8,54.0,30.06,NW,318,5.0,-999.0,90,-99.99,,,0.00,weatherlink.com 1.10,2013-07-17 18:36:00,
2013-07-17 11:52:00,56.4,54.0,30.06,NNW,333,8.0,-999.0,90,-99.99,,,0.00,weatherlink.com 1.10,2013-07-17 18:52:00,
2013-07-17 12:06:00,55.4,53.0,30.07,NNW,332,8.0,-999.0,91,-99.99,,,0.00,weatherlink.com 1.10,2013-07-17 19:06:00,
2013-07-17 12:21:00,55.9,54.0,30.06,NW,316,4.0,-999.0,92,-99.99,,,0.00,weatherlink.com 1.10,2013-07-17 19:21:00,
2013-07-17 12:36:00,56.8,54.0,30.07,NW,304,6.0,-999.0,91,-99.99,,,0.00,weatherlink.com 1.10,2013-07-17 19:36:00,
2013-07-17 12:52:00,57.5,54.0,30.07,NNW,332,5.0,-999.0,88,-99.99,,,0.00,weatherlink.com 1.10,2013-07-17 19:52:00,
2013-07-17 13:06:00,57.3,55.0,30.07,NW,324,11.0,-999.0,90,-99.99,,,0.00,weatherlink.com 1.10,2013-07-17 20:06:00,
2013-07-17 13:22:00,57.4,54.0,30.07,WNW,302,6.0,-999.0,88,-99.99,,,0.00,weatherlink.com 1.10,2013-07-17 20:22:00,
2013-07-17 13:37:00,57.5,54.0,30.06,NW,309,8.0,-999.0,89,-99.99,,,0.00,weatherlink.com 1.10,2013-07-17 20:37:00,
2013-07-17 13:51:00,56.7,54.0,30.06,NW,308,9.0,-999.0,89,-99.99,,,0.00,weatherlink.com 1.10,2013-07-17 20:51:00,
2013-07-17 14:06:00,56.6,54.0,30.07,NW,311,8.0,-999.0,89,-99.99,,,0.00,weatherlink.com 1.10,2013-07-17 21:06:00,
2013-07-17 14:22:00,57.1,54.0,30.06,North,350,3.0,-999.0,90,-99.99,,,0.00,weatherlink.com 1.10,2013-07-17 21:22:00,
2013-07-17 14:36:00,58.9,55.0,30.06,NW,324,10.0,-999.0,86,-99.99,,,0.00,weatherlink.com 1.10,2013-07-17 21:36:00,
2013-07-17 14:51:00,57.9,54.0,30.06,NNW,327,10.0,-999.0,86,-99.99,,,0.00,weatherlink.com 1.10,2013-07-17 21:51:00,
2013-07-17 15:06:00,57.8,54.0,30.06,NW,311,13.0,-999.0,87,-99.99,,,0.00,weatherlink.com 1.10,2013-07-17 22:06:00,
2013-07-17 15:22:00,58.7,54.0,30.06,NNE,26,8.0,-999.0,85,-99.99,,,0.00,weatherlink.com 1.10,2013-07-17 22:22:00,
2013-07-17 15:36:00,58.5,54.0,30.05,NNW,340,7.0,-999.0,84,-99.99,,,0.00,weatherlink.com 1.10,2013-07-17 22:36:00,
2013-07-17 15:51:00,58.2,54.0,30.04,NW,313,13.0,-999.0,85,-99.99,,,0.00,weatherlink.com 1.10,2013-07-17 22:51:00,
2013-07-17 16:07:00,57.8,54.0,30.04,WNW,302,11.0,-999.0,86,-99.99,,,0.00,weatherlink.com 1.10,2013-07-17 23:07:00,
2013-07-17 16:21:00,57.6,54.0,30.04,NW,308,9.0,-999.0,86,-99.99,,,0.00,weatherlink.com 1.10,2013-07-17 23:21:00,
2013-07-17 16:36:00,58.3,54.0,30.04,NW,314,11.0,-999.0,85,-99.99,,,0.00,weatherlink.com 1.10,2013-07-17 23:36:00,
2013-07-17 16:51:00,58.5,54.0,30.04,NNE,15,8.0,-999.0,84,-99.99,,,0.00,weatherlink.com 1.10,2013-07-17 23:51:00,
2013-07-17 17:06:00,56.9,53.0,30.03,NW,307,8.0,-999.0,86,-99.99,,,0.00,weatherlink.com 1.10,2013-07-18 00:06:00,
2013-07-17 17:21:00,56.9,53.0,30.03,WNW,300,11.0,-999.0,87,-99.99,,,0.00,weatherlink.com 1.10,2013-07-18 00:21:00,
2013-07-17 17:37:00,56.3,53.0,30.03,WNW,303,11.0,-999.0,87,-99.99,,,0.00,weatherlink.com 1.10,2013-07-18 00:37:00,
2013-07-17 17:51:00,55.9,52.0,30.03,WNW,302,12.0,-999.0,88,-99.99,,,0.00,weatherlink.com 1.10,2013-07-18 00:51:00,
2013-07-17 18:07:00,55.8,53.0,30.02,NW,324,8.0,-999.0,89,-99.99,,,0.00,weatherlink.com 1.10,2013-07-18 01:07:00,
2013-07-17 18:22:00,55.5,52.0,30.03,NW,313,13.0,-999.0,89,-99.99,,,0.00,weatherlink.com 1.10,2013-07-18 01:22:00,
2013-07-17 18:36:00,54.9,52.0,30.03,NW,311,10.0,-999.0,90,-99.99,,,0.00,weatherlink.com 1.10,2013-07-18 01:36:00,
2013-07-17 18:51:00,54.3,52.0,30.03,North,349,5.0,-999.0,90,-99.99,,,0.00,weatherlink.com 1.10,2013-07-18 01:51:00,
2013-07-17 19:06:00,54.5,52.0,30.03,NNW,331,10.0,-999.0,90,-99.99,,,0.00,weatherlink.com 1.10,2013-07-18 02:06:00,
2013-07-17 19:21:00,54.6,52.0,30.03,NW,308,9.0,-999.0,90,-99.99,,,0.00,weatherlink.com 1.10,2013-07-18 02:21:00,
2013-07-17 19:36:00,54.5,52.0,30.03,NNW,327,8.0,-999.0,90,-99.99,,,0.00,weatherlink.com 1.10,2013-07-18 02:36:00,
2013-07-17 19:51:00,54.2,51.0,30.03,NNW,329,6.0,-999.0,90,-99.99,,,0.00,weatherlink.com 1.10,2013-07-18 02:51:00,
2013-07-17 21:06:00,53.2,51.0,30.02,North,5,3.0,-999.0,92,-99.99,,,0.00,weatherlink.com 1.10,2013-07-18 04:06:00,
2013-07-17 21:21:00,52.9,51.0,30.02,NNW,329,6.0,-999.0,92,-99.99,,,0.00,weatherlink.com 1.10,2013-07-18 04:21:00,
2013-07-17 21:36:00,52.8,51.0,30.02,North,9,2.0,-999.0,93,-99.99,,,0.00,weatherlink.com 1.10,2013-07-18 04:36:00,
2013-07-17 21:51:00,52.8,51.0,30.02,NW,325,6.0,-999.0,93,-99.99,,,0.00,weatherlink.com 1.10,2013-07-18 04:51:00,
2013-07-17 22:06:00,52.6,51.0,30.02,NW,321,6.0,-999.0,93,-99.99,,,0.00,weatherlink.com 1.10,2013-07-18 05:06:00,
2013-07-17 22:21:00,52.5,51.0,30.02,North,350,4.0,-999.0,93,-99.99,,,0.00,weatherlink.com 1.10,2013-07-18 05:21:00,
2013-07-17 22:36:00,52.4,51.0,30.02,NW,320,4.0,-999.0,94,-99.99,,,0.00,weatherlink.com 1.10,2013-07-18 05:36:00,
2013-07-17 22:51:00,52.3,51.0,30.02,NW,315,3.0,-999.0,94,-99.99,,,0.00,weatherlink.com 1.10,2013-07-18 05:51:00,
2013-07-17 23:06:00,52.1,51.0,30.01,NW,319,4.0,-999.0,94,-99.99,,,0.00,weatherlink.com 1.10,2013-07-18 06:06:00,
2013-07-17 23:21:00,52.1,51.0,30.01,NW,315,0.0,-999.0,94,-99.99,,,0.00,weatherlink.com 1.10,2013-07-18 06:21:00,
2013-07-17 23:36:00,51.9,50.0,30.01,NW,315,0.0,-999.0,94,-99.99,,,0.00,weatherlink.com 1.10,2013-07-18 06:36:00,
2013-07-17 23:51:00,51.7,50.0,30.01,North,355,0.0,-999.0,94,-99.99,,,0.00,weatherlink.com 1.10,2013-07-18 06:51:00,